Powrót do katalogu

NOAA 16 DEB

AktywnyPO
NORAD 41141·DEBRIS·🇺🇸 United States

Wystrzelony Sep 21, 2000 z Vandenberg Space Force Base

Loading…

Następne Przeloty (najbliższe 24 godziny)

TLE

ŚwieżeSource: Space-Track

Epoka: Sep 13, 2026, 18:10 UTC

1 41141U 00055BY  26256.75755269  .00012602  00000-0  19404-2 0  9999
2 41141  98.9670 187.1136 0036807  79.2425 281.2920 14.73154493565205

Śledź NOAA 16 DEB w czasie rzeczywistym z AllMySat

Download on the App Store